Salida, CO

8:19 AM MDT on April 23, 2018 (GMT -0600)
Salida

Weather History for KANK - August, 2013

Change the Weather History Date:

Friday, August 30, 2013

  Actual Average (KGUC) Record (KGUC)
Temperature  
Mean Temperature 71 °F -  
Max Temperature 83 °F 72 °F 82 °F (1998)
Min Temperature 59 °F 39 °F 32 °F (2002)
Cooling Degree Days 6    
Growing Degree Days 21 (Base 50)    
Moisture  
Dew Point 45 °F    
Average Humidity 41    
Maximum Humidity 65    
Minimum Humidity 17    
Precipitation  
Precipitation 0.00 in - - ()
Sea Level Pressure  
Sea Level Pressure 30.47 in    
Wind  
Wind Speed 6 mph (NW)    
Max Wind Speed 17 mph    
Max Gust Speed 33 mph    
Visibility 10 miles    
Events      
Averages and records for this station are not official NWS values.
T = Trace of Precipitation, MM = Missing Value Source: NWS Daily Summary

Daily Weather History Graph

Daily Weather History Graph

Search for Another Location

Airport or City:

Astronomy

Aug. 30, 2013 Rise Set
Actual Time 6:31 AM MDT 7:36 PM MDT
Civil Twilight 6:04 AM MDT 8:03 PM MDT
Nautical Twilight 5:32 AM MDT 8:36 PM MDT
Astronomical Twilight 4:58 AM MDT 9:09 PM MDT
Moon 1:15 AM MDT (8/30) 3:52 PM MDT (8/30)
Length of Visible Light 13h 59m
Length of Day
13h 04m
Waning Crescent, 28% of the Moon is Illuminated
Aug 30
Waning Crescent
Sep 5
New
Sep 12
First Quarter
Sep 19
Full
Sep 26
Last Quarter

Hourly Weather History & Observations

Time (MDT) Temp. Dew Point Humidity Pressure Visibility Wind Dir Wind Speed Gust Speed Precip Events Conditions
12:15 AM 69.3 °F 47.3 °F 45% 30.54 in 10.0 mi Calm Calm - N/A   Mostly Cloudy
12:35 AM 68.9 °F 46.9 °F 45% 30.54 in 10.0 mi West 5.8 mph - N/A   Overcast
12:55 AM 68.7 °F 46.8 °F 45% 30.53 in 10.0 mi NW 10.4 mph - N/A   Mostly Cloudy
1:15 AM 68.0 °F 46.9 °F 47% 30.53 in 10.0 mi NNW 8.1 mph - N/A   Scattered Clouds
1:35 AM 67.5 °F 46.9 °F 48% 30.53 in 10.0 mi NW 4.6 mph - N/A   Scattered Clouds
1:55 AM 67.1 °F 46.9 °F 48% 30.52 in 10.0 mi NW 4.6 mph - N/A   Scattered Clouds
2:15 AM 63.5 °F 47.7 °F 56% 30.52 in 10.0 mi WSW 4.6 mph - N/A   Scattered Clouds
2:35 AM 63.7 °F 47.7 °F 56% 30.52 in 10.0 mi Calm Calm - N/A   Clear
2:55 AM 62.4 °F 47.8 °F 59% 30.52 in 10.0 mi WSW 3.5 mph - N/A   Clear
3:15 AM 61.3 °F 47.3 °F 60% 30.51 in 10.0 mi South 3.5 mph - N/A   Clear
3:35 AM 62.6 °F 47.8 °F 58% 30.51 in 10.0 mi SSW 3.5 mph - N/A   Clear
3:55 AM 61.9 °F 48.2 °F 61% 30.51 in 10.0 mi WSW 4.6 mph - N/A   Clear
4:15 AM 61.7 °F 47.5 °F 60% 30.50 in 10.0 mi WSW 4.6 mph - N/A   Clear
4:35 AM 61.2 °F 47.3 °F 60% 30.50 in 10.0 mi WSW 6.9 mph - N/A   Clear
4:55 AM 60.3 °F 46.6 °F 61% 30.50 in 10.0 mi WSW 5.8 mph - N/A   Clear
5:15 AM 59.2 °F 46.4 °F 63% 30.50 in 10.0 mi West 5.8 mph - N/A   Clear
5:35 AM 59.9 °F 46.4 °F 61% 30.50 in 10.0 mi West 5.8 mph - N/A   Clear
5:55 AM 60.6 °F 46.4 °F 59% 30.50 in 10.0 mi West 5.8 mph - N/A   Clear
6:15 AM 59.0 °F 46.4 °F 63% 30.51 in 10.0 mi WSW 5.8 mph - N/A   Clear
6:35 AM 59.5 °F 46.9 °F 63% 30.51 in 10.0 mi West 4.6 mph - N/A   Clear
6:55 AM 59.2 °F 47.3 °F 65% 30.52 in 10.0 mi SW 5.8 mph - N/A   Clear
7:55 AM 64.6 °F 46.6 °F 52% 30.53 in 10.0 mi West 3.5 mph - N/A   Clear
8:15 AM 66.2 °F 48.7 °F 53% 30.53 in 10.0 mi WNW 5.8 mph - N/A   Clear
8:35 AM 67.1 °F 48.6 °F 51% 30.53 in 10.0 mi NW 8.1 mph - N/A   Clear
8:55 AM 69.3 °F 48.7 °F 48% 30.53 in 10.0 mi North 9.2 mph - N/A   Clear
9:15 AM 69.6 °F 49.1 °F 48% 30.53 in 10.0 mi NNW 4.6 mph - N/A   Clear
9:35 AM 70.7 °F 48.9 °F 46% 30.53 in 10.0 mi NNW 4.6 mph - N/A   Clear
9:55 AM 71.8 °F 48.0 °F 43% 30.52 in 10.0 mi North 6.9 mph - N/A   Clear
10:15 AM 73.9 °F 47.7 °F 39% 30.52 in 10.0 mi NNE 4.6 mph - N/A   Clear
10:35 AM 74.3 °F 47.7 °F 39% 30.51 in 10.0 mi North 4.6 mph - N/A   Clear
10:55 AM 76.6 °F 43.7 °F 31% 30.50 in 10.0 mi Calm Calm - N/A   Scattered Clouds
11:15 AM 77.4 °F 43.0 °F 29% 30.50 in 10.0 mi Calm Calm - N/A   Mostly Cloudy
11:35 AM 77.0 °F 44.8 °F 32% 30.49 in 10.0 mi Calm Calm - N/A   Scattered Clouds
11:55 AM 77.7 °F 43.2 °F 29% 30.49 in 10.0 mi Calm Calm - N/A   Scattered Clouds
12:15 PM 78.6 °F 43.3 °F 29% 30.47 in 10.0 mi Calm Calm - N/A   Scattered Clouds
12:35 PM 78.6 °F 43.2 °F 28% 30.47 in 10.0 mi WNW 3.5 mph - N/A   Mostly Cloudy
12:55 PM 79.9 °F 42.6 °F 27% 30.46 in 10.0 mi Calm Calm - N/A   Overcast
1:15 PM 81.3 °F 42.3 °F 25% 30.45 in 10.0 mi North 5.8 mph - N/A   Overcast
1:35 PM 83.3 °F 38.5 °F 20% 30.45 in 10.0 mi North 5.8 mph - N/A   Scattered Clouds
1:55 PM 83.8 °F 34.2 °F 17% 30.44 in 10.0 mi NNE 4.6 mph - N/A   Mostly Cloudy
2:15 PM 83.1 °F 40.8 °F 22% 30.43 in 10.0 mi North 13.8 mph - N/A   Scattered Clouds
2:35 PM 82.4 °F 41.2 °F 23% 30.42 in 10.0 mi North 13.8 mph 20.7 mph N/A   Clear
2:55 PM 82.0 °F 41.0 °F 23% 30.41 in 10.0 mi North 15.0 mph 27.6 mph N/A   Scattered Clouds
3:15 PM 81.5 °F 39.9 °F 23% 30.41 in 10.0 mi North 13.8 mph 24.2 mph N/A   Scattered Clouds
3:35 PM 81.0 °F 41.5 °F 25% 30.41 in 10.0 mi North 9.2 mph 21.9 mph N/A   Clear
3:55 PM 79.7 °F 41.9 °F 26% 30.41 in 10.0 mi North 9.2 mph 17.3 mph N/A   Mostly Cloudy
4:15 PM 82.4 °F 41.5 °F 23% 30.40 in 10.0 mi North 11.5 mph 16.1 mph N/A   Scattered Clouds
4:35 PM 80.8 °F 42.3 °F 25% 30.40 in 10.0 mi North 10.4 mph - N/A   Scattered Clouds
4:55 PM 79.5 °F 41.5 °F 26% 30.40 in 10.0 mi NNW 5.8 mph - N/A   Clear
5:15 PM 80.8 °F 39.9 °F 23% 30.39 in 10.0 mi NW 8.1 mph - N/A   Clear
5:35 PM 80.8 °F 40.3 °F 24% 30.39 in 10.0 mi NNW 10.4 mph - N/A   Clear
5:55 PM 80.1 °F 39.9 °F 24% 30.39 in 10.0 mi NW 9.2 mph - N/A   Clear
6:15 PM 80.4 °F 40.1 °F 24% 30.39 in 10.0 mi NW 4.6 mph - N/A   Scattered Clouds
6:35 PM 79.7 °F 40.6 °F 25% 30.39 in 10.0 mi North 6.9 mph - N/A   Scattered Clouds
6:55 PM 78.4 °F 41.4 °F 27% 30.39 in 10.0 mi NNW 9.2 mph - N/A   Scattered Clouds
7:15 PM 77.9 °F 41.9 °F 28% 30.41 in 10.0 mi South 6.9 mph - N/A   Mostly Cloudy
7:35 PM 75.2 °F 42.1 °F 30% 30.43 in 10.0 mi SW 5.8 mph 27.6 mph N/A   Mostly Cloudy
7:55 PM 74.3 °F 42.6 °F 32% 30.43 in 10.0 mi East 8.1 mph - N/A   Scattered Clouds
8:15 PM 73.8 °F 42.4 °F 32% 30.44 in 10.0 mi East 4.6 mph - N/A   Mostly Cloudy
8:35 PM 73.4 °F 42.3 °F 33% 30.44 in 10.0 mi West 4.6 mph - N/A   Overcast
8:55 PM 73.8 °F 42.4 °F 32% 30.44 in 10.0 mi NNW 11.5 mph 17.3 mph N/A   Scattered Clouds
9:15 PM 72.0 °F 45.3 °F 38% 30.45 in 10.0 mi NNW 13.8 mph 21.9 mph N/A   Clear
9:35 PM 69.6 °F 46.8 °F 44% 30.45 in 10.0 mi NNW 17.3 mph 33.4 mph N/A   Clear
9:55 PM 68.5 °F 47.5 °F 47% 30.45 in 10.0 mi North 16.1 mph 25.3 mph N/A   Clear
10:15 PM 68.0 °F 47.8 °F 48% 30.46 in 10.0 mi North 12.7 mph 25.3 mph N/A   Clear
10:35 PM 67.5 °F 47.7 °F 49% 30.46 in 10.0 mi NW 5.8 mph - N/A   Clear
10:55 PM 66.9 °F 47.7 °F 50% 30.46 in 10.0 mi NW 6.9 mph - N/A   Clear
11:15 PM 66.6 °F 48.2 °F 52% 30.46 in 10.0 mi NW 13.8 mph - N/A   Clear
11:35 PM 66.4 °F 48.2 °F 52% 30.45 in 10.0 mi NNW 10.4 mph - N/A   Clear
11:55 PM 66.6 °F 48.2 °F 52% 30.45 in 10.0 mi WNW 6.9 mph 16.1 mph N/A   Clear